User:    Logout
Location:
(unspecified)
Time: 11:40:34
(UTC+00:00)
Language:

SEDSat Delta rocket - Orbit

View from above orbital plane
View from above orbital plane
View from above satellite
View from above satellite

Ground track
Ground track

The orbit data is extracted from the following two-line orbital elements,

1 25510U 98061C   17209.57828200 +.00000118 +00000-0 +10886-4 0  9995
2 25510 031.4330 262.8702 0328050 088.1019 031.6808 14.37215778983776
Epoch (UTC): 28 July 2017 13:52:43
Eccentricity: 0.0328050
inclination: 31.4330°
perigee height: 533 km
apogee height: 1002 km
right ascension of ascending node: 262.8702°
argument of perigee: 88.1019°
revolutions per day: 14.37215778
mean anomaly at epoch: 31.6808°
orbit number at epoch: 98377

The dashed part of the orbit path shows where the satellite is in the earth's shadow,  

DLR